Weather History for Lawrence, KS

Change the Weather History Date:

Tuesday, July 9, 2013

  Actual Average Record
Temperature  
Mean Temperature 90 °F 78 °F  
Max Temperature 104 °F 89 °F 104 °F (2013)
Min Temperature 76 °F 67 °F 55 °F (1996)
Degree Days  
Heating Degree Days 0 0  
Month to date heating degree days 0 0  
Since 1 June heating degree days 13 8  
Since 1 July heating degree days 0 0  
Cooling Degree Days 25 13  
Month to date cooling degree days 118 113  
Year to date cooling degree days 557 507  
Since 1 June cooling degree days 430 388  
Growing Degree Days 40 (Base 50)    
Moisture  
Dew Point 70 °F    
Average Humidity 55    
Maximum Humidity 76    
Minimum Humidity 33    
Precipitation  
Precipitation 0.00 in 0.16 in 0.92 in (2003)
Month to date precipitation 0.21 1.46  
Year to date precipitation 15.87 20.81  
Sea Level Pressure  
Sea Level Pressure 29.90 in    
Wind  
Wind Speed 9 mph (South)    
Max Wind Speed 25 mph    
Max Gust Speed 31 mph    
Visibility 10 miles    
Events      
T = Trace of Precipitation, MM = Missing Value Source: NWS Daily Summary

Daily Weather History Graph

Daily Weather History Graph

Search for Another Location

Airport:

Trip Planner

Search our weather history database for the weather conditions in past years. The results will help you decide how hot, cold, wet, or windy it might be!

Date:

Astronomy

Jul. 09, 2013 Rise Set
Actual Time 6:03 AM CDT 8:48 PM CDT
Civil Twilight 5:31 AM CDT 9:19 PM CDT
Nautical Twilight 4:52 AM CDT 9:59 PM CDT
Astronomical Twilight 4:07 AM CDT 10:44 PM CDT
Moon 7:27 AM CDT (7/9) 9:27 PM CDT (7/9)
Length of Visible Light 15h 48m
Length of Day
14h 44m
New Moon, 2% of the Moon is Illuminated
Jul 9
New Moon
Jul 15
First Quarter
Jul 22
Full
Jul 29
Last Quarter
Aug 6
New

Hourly Weather History & Observations

Time (CDT) Temp. Heat Index Dew Point Humidity Pressure Visibility Wind Dir Wind Speed Gust Speed Precip Events Conditions
12:52 AM 84.0 °F 86.5 °F 66.9 °F 56% 29.94 in 10.0 mi South 9.2 mph - N/A   Clear
1:52 AM 82.9 °F 85.4 °F 66.9 °F 58% 29.94 in 10.0 mi South 6.9 mph - N/A   Clear
2:52 AM 82.0 °F 84.9 °F 68.0 °F 62% 29.94 in 10.0 mi South 6.9 mph - N/A   Clear
3:52 AM 82.0 °F 84.9 °F 68.0 °F 62% 29.94 in 10.0 mi South 3.5 mph - N/A   Clear
4:52 AM 79.0 °F - 68.0 °F 69% 29.95 in 10.0 mi SSE 3.5 mph - N/A   Clear
5:52 AM 79.0 °F - 68.0 °F 69% 29.96 in 10.0 mi SSE 3.5 mph - N/A   Clear
6:52 AM 77.0 °F - 70.0 °F 79% 29.99 in 10.0 mi Calm Calm - N/A   Clear
7:52 AM 81.0 °F 84.4 °F 70.0 °F 69% 29.96 in 10.0 mi SSE 4.6 mph - N/A   Clear
8:52 AM 82.0 °F 86.3 °F 71.1 °F 69% 29.94 in 10.0 mi SSE 9.2 mph - N/A   Clear
9:52 AM 84.0 °F 89.0 °F 71.1 °F 65% 29.94 in 10.0 mi SE 5.8 mph - N/A   Clear
10:52 AM 91.0 °F 98.2 °F 72.0 °F 53% 29.93 in 10.0 mi SSW 10.4 mph - N/A   Clear
11:52 AM 95.0 °F 103.2 °F 72.0 °F 47% 29.92 in 10.0 mi South 12.7 mph 20.7 mph N/A   Clear
12:52 PM 96.1 °F 102.9 °F 70.0 °F 43% 29.91 in 10.0 mi SSW 12.7 mph 20.7 mph N/A   Clear
1:52 PM 100.0 °F 107.8 °F 70.0 °F 38% 29.89 in 10.0 mi SSW 9.2 mph - N/A   Clear
2:52 PM 102.9 °F 113.3 °F 72.0 °F 37% 29.87 in 10.0 mi South 12.7 mph 19.6 mph N/A   Clear
3:52 PM 102.0 °F 109.6 °F 70.0 °F 35% 29.86 in 10.0 mi South 17.3 mph 21.9 mph N/A   Clear
4:52 PM 104.0 °F 112.2 °F 70.0 °F 33% 29.84 in 10.0 mi SSW 13.8 mph 20.7 mph N/A   Clear
5:52 PM 100.9 °F 109.7 °F 71.1 °F 38% 29.83 in 10.0 mi South 16.1 mph 21.9 mph N/A   Clear
6:52 PM 99.0 °F 107.0 °F 71.1 °F 40% 29.82 in 10.0 mi South 9.2 mph - N/A   Clear
7:52 PM 96.1 °F 103.5 °F 71.1 °F 44% 29.81 in 10.0 mi South 10.4 mph - N/A   Clear
8:52 PM 93.0 °F 99.0 °F 70.0 °F 47% 29.83 in 10.0 mi South 8.1 mph - N/A   Clear
9:52 PM 84.0 °F 89.6 °F 72.0 °F 67% 29.84 in 10.0 mi SE 5.8 mph - N/A   Clear
10:52 PM 87.1 °F 92.0 °F 70.0 °F 57% 29.86 in 10.0 mi South 5.8 mph - N/A   Clear
11:52 PM 90.0 °F 94.5 °F 69.1 °F 50% 29.90 in 10.0 mi WSW 9.2 mph - N/A   Partly Cloudy